Location: Haskovo
(41.9227°N, 25.5707°E)
Time: 04:52:54
(UTC+03:00)

ISS - Visible Passes

Search period start: 14 April 2024 00:00
Search period end: 24 April 2024 00:00
Orbit: 413 x 419 km, 51.6° (Epoch: 13 April)

Date Brightness Start Highest point End Pass type
(mag) Time Alt. Az. Time Alt. Az. Time Alt. Az.
19 Apr -1.5 05:47:29 10° S 05:49:57 20° SE 05:52:27 10° E visible
20 Apr -1.0 05:00:22 10° SSE 05:01:29 11° SE 05:02:35 10° ESE visible
21 Apr -3.2 05:45:47 10° SW 05:49:02 54° SE 05:52:18 10° ENE visible
22 Apr -2.4 04:58:53 21° S 05:00:23 30° SE 05:03:22 10° ENE visible
23 Apr -1.5 04:12:06 18° SE 04:12:06 18° SE 04:14:06 10° E visible
23 Apr -3.4 05:44:59 10° WSW 05:48:13 57° NNW 05:51:30 10° NE visible
